| time (UTC) | temp F | wind direction | speed knots | gust knots | rain 1hr in | rain 24hr in | rain mn in | humidity % | barometer mb |
| 20260505173015 | 55 | 3 | 4.3 | 6.1 | 0.00 | 0.02 | 0.02 | 46 | 1014.1 |
| 20260505172513 | 55 | 99 | 0.9 | 7.0 | 0.00 | 0.02 | 0.02 | 43 | 1014.4 |
| 20260505172009 | 55 | 70 | 2.6 | 3.5 | 0.00 | 0.02 | 0.02 | 45 | 1014.3 |
| 20260505171505 | 54 | 32 | 3.5 | 5.2 | 0.00 | 0.02 | 0.02 | 47 | 1014.4 |
| 20260505171001 | 55 | 23 | 4.3 | 7.8 | 0.00 | 0.02 | 0.02 | 47 | 1014.4 |
| 20260505170458 | 54 | 78 | 1.7 | 3.5 | 0.00 | 0.02 | 0.02 | 47 | 1014.3 |
| 20260505165954 | 53 | 108 | 2.6 | 6.1 | 0.00 | 0.02 | 0.02 | 45 | 1014.5 |
| 20260505165450 | 53 | 208 | 1.7 | 5.2 | 0.00 | 0.02 | 0.02 | 45 | 1014.4 |
| 20260505164945 | 53 | 235 | 0.0 | 6.1 | 0.00 | 0.02 | 0.02 | 50 | 1014.3 |
| 20260505164442 | 53 | 191 | 1.7 | 2.6 | 0.00 | 0.02 | 0.02 | 50 | 1014.6 |
| 20260505163940 | 53 | 74 | 2.6 | 6.1 | 0.00 | 0.02 | 0.02 | 49 | 1014.6 |
| 20260505163439 | 52 | 145 | 2.6 | 5.2 | 0.00 | 0.02 | 0.02 | 52 | 1014.5 |
| 20260505162937 | 52 | 39 | 4.3 | 7.0 | 0.00 | 0.02 | 0.02 | 52 | 1014.3 |
| 20260505162433 | 52 | 45 | 2.6 | 3.5 | 0.00 | 0.02 | 0.02 | 54 | 1014.1 |
| 20260505161930 | 51 | 112 | 1.7 | 6.1 | 0.00 | 0.02 | 0.02 | 56 | 1014.2 |
| 20260505161426 | 51 | 61 | 3.5 | 6.1 | 0.00 | 0.02 | 0.02 | 55 | 1014.1 |
| 20260505160924 | 51 | 113 | 1.7 | 6.1 | 0.00 | 0.02 | 0.02 | 56 | 1014.1 |
| 20260505160422 | 51 | 187 | 2.6 | 3.5 | 0.00 | 0.02 | 0.02 | 57 | 1013.9 |
| 20260505152858 | 50 | 354 | 5.2 | 7.0 | 0.00 | 0.02 | 0.02 | 62 | 1013.8 |
| 20260505152355 | 49 | 149 | 2.6 | 3.5 | 0.00 | 0.02 | 0.02 | 64 | 1013.7 |
| 20260505151849 | 49 | 72 | 3.5 | 7.8 | 0.00 | 0.02 | 0.02 | 62 | 1013.6 |
| 20260505151346 | 49 | 22 | 4.3 | 7.8 | 0.00 | 0.02 | 0.02 | 63 | 1013.8 |
| 20260505150843 | 49 | 239 | 3.5 | 6.1 | 0.00 | 0.02 | 0.02 | 64 | 1013.7 |
| 20260505150340 | 49 | 5 | 7.0 | 7.8 | 0.00 | 0.02 | 0.02 | 63 | 1013.5 |
| 20260505140304 | 49 | 177 | 1.7 | 3.5 | 0.00 | 0.02 | 0.02 | 63 | 1013.3 |
| 20260505130228 | 49 | 88 | 2.6 | 3.5 | 0.00 | 0.02 | 0.02 | 63 | 1012.6 |
| 20260505124718 | 49 | 161 | 0.9 | 1.7 | 0.00 | 0.02 | 0.02 | 66 | 1012.2 |
| 20260505124215 | 49 | 171 | 0.9 | 3.5 | 0.00 | 0.02 | 0.02 | 67 | 1012.1 |
| 20260505123711 | 48 | 159 | 0.0 | 2.6 | 0.00 | 0.02 | 0.02 | 69 | 1012.0 |
| 20260505123208 | 48 | 171 | 0.0 | 0.9 | 0.00 | 0.02 | 0.02 | 71 | 1012.0 |
| 20260505122704 | 48 | 178 | 0.0 | 0.0 | 0.00 | 0.02 | 0.02 | 72 | 1011.8 |
| 20260505122201 | 48 | 171 | 0.0 | 0.0 | 0.00 | 0.02 | 0.02 | 74 | 1011.8 |
| 20260505121658 | 48 | 185 | 0.0 | 0.0 | 0.00 | 0.02 | 0.02 | 76 | 1011.7 |
| 20260505121154 | 47 | 178 | 0.0 | 0.0 | 0.00 | 0.02 | 0.02 | 78 | 1011.6 |
| 20260505120651 | 47 | 169 | 0.0 | 0.0 | 0.00 | 0.02 | 0.02 | 79 | 1011.6 |
| 20260505120148 | 47 | 166 | 0.0 | 0.0 | 0.00 | 0.02 | 0.02 | 79 | 1011.5 |
| 20260505115646 | 47 | 168 | 0.0 | 0.0 | 0.00 | 0.02 | 0.02 | 79 | 1011.1 |
| 20260505115145 | 47 | 164 | 0.0 | 0.0 | 0.00 | 0.02 | 0.02 | 80 | 1010.9 |
| 20260505114642 | 47 | 164 | 0.0 | 0.0 | 0.00 | 0.02 | 0.02 | 80 | 1011.0 |
| 20260505114138 | 47 | 126 | 1.7 | 1.7 | 0.00 | 0.02 | 0.02 | 80 | 1010.9 |
| 20260505113634 | 47 | 168 | 0.9 | 1.7 | 0.00 | 0.02 | 0.02 | 81 | 1010.9 |
| 20260505113131 | 47 | 112 | 0.9 | 1.7 | 0.00 | 0.02 | 0.02 | 83 | 1011.0 |
| 20260505112627 | 47 | 160 | 0.0 | 0.9 | 0.00 | 0.02 | 0.02 | 84 | 1010.9 |
| 20260505112126 | 47 | 121 | 1.7 | 1.7 | 0.00 | 0.02 | 0.02 | 85 | 1011.1 |
| 20260505111625 | 47 | 168 | 0.0 | 0.0 | 0.00 | 0.02 | 0.02 | 85 | 1011.2 |
| 20260505111121 | 47 | 167 | 0.0 | 0.0 | 0.00 | 0.02 | 0.02 | 85 | 1011.2 |
| 20260505110618 | 47 | 165 | 0.0 | 0.0 | 0.00 | 0.02 | 0.02 | 85 | 1011.2 |
| 20260505110115 | 46 | 165 | 0.0 | 0.0 | 0.00 | 0.02 | 0.02 | 86 | 1011.1 |
| 20260505102050 | 47 | 168 | 0.0 | 0.0 | 0.00 | 0.02 | 0.02 | 84 | 1011.4 |
| 20260505101549 | 48 | 166 | 0.0 | 0.0 | 0.00 | 0.02 | 0.02 | 84 | 1011.4 |
| 20260505101045 | 48 | 167 | 0.0 | 0.0 | 0.00 | 0.02 | 0.02 | 82 | 1011.4 |
| 20260505100542 | 48 | 165 | 0.0 | 0.0 | 0.00 | 0.02 | 0.02 | 82 | 1011.4 |
| 20260505100039 | 48 | 167 | 0.0 | 0.0 | 0.00 | 0.02 | 0.02 | 84 | 1011.3 |
| 20260505095535 | 48 | 167 | 0.0 | 0.0 | 0.00 | 0.02 | 0.02 | 84 | 1011.3 |
| 20260505095031 | 48 | 167 | 0.0 | 0.0 | 0.00 | 0.02 | 0.02 | 85 | 1011.2 |
| 20260505094528 | 48 | 165 | 0.0 | 0.0 | 0.00 | 0.02 | 0.02 | 85 | 1011.3 |
| 20260505094024 | 48 | 169 | 0.0 | 0.0 | 0.00 | 0.02 | 0.02 | 86 | 1011.1 |
| 20260505093521 | 48 | 170 | 0.0 | 0.0 | 0.00 | 0.02 | 0.02 | 86 | 1011.0 |
| 20260505093018 | 48 | 168 | 0.0 | 0.0 | 0.00 | 0.02 | 0.02 | 86 | 1010.9 |
| 20260505092515 | 48 | 167 | 0.0 | 1.7 | 0.00 | 0.02 | 0.02 | 86 | 1010.9 |
| 20260505092014 | 48 | 149 | 0.9 | 2.6 | 0.00 | 0.02 | 0.02 | 85 | 1010.5 |
| 20260505091510 | 48 | 134 | 1.7 | 1.7 | 0.00 | 0.02 | 0.02 | 86 | 1010.5 |
| 20260505091008 | 48 | 156 | 1.7 | 2.6 | 0.00 | 0.02 | 0.02 | 86 | 1010.4 |
| 20260505090506 | 48 | 165 | 0.0 | 0.0 | 0.00 | 0.02 | 0.02 | 85 | 1010.4 |
| 20260505090003 | 48 | 165 | 0.0 | 0.0 | 0.00 | 0.02 | 0.02 | 84 | 1010.4 |
| 20260505085501 | 48 | 168 | 0.0 | 0.0 | 0.00 | 0.02 | 0.02 | 83 | 1010.3 |
| 20260505084959 | 48 | 169 | 0.0 | 0.0 | 0.00 | 0.02 | 0.02 | 82 | 1010.2 |
| 20260505084457 | 48 | 168 | 0.0 | 0.0 | 0.00 | 0.02 | 0.02 | 84 | 1010.4 |
| 20260505083955 | 48 | 167 | 0.0 | 0.9 | 0.00 | 0.02 | 0.02 | 84 | 1010.3 |
| 20260505083452 | 48 | 168 | 0.0 | 0.0 | 0.00 | 0.02 | 0.02 | 85 | 1010.3 |
| 20260505082948 | 48 | 171 | 0.0 | 0.0 | 0.00 | 0.02 | 0.02 | 85 | 1010.3 |
| 20260505082444 | 48 | 177 | 0.0 | 0.0 | 0.00 | 0.02 | 0.02 | 85 | 1010.0 |
| 20260505081941 | 48 | 160 | 0.0 | 0.0 | 0.00 | 0.02 | 0.02 | 86 | 1010.1 |
| 20260505081438 | 48 | 168 | 0.0 | 0.0 | 0.00 | 0.02 | 0.02 | 86 | 1010.0 |
| 20260505080934 | 48 | 168 | 0.0 | 0.0 | 0.00 | 0.02 | 0.02 | 85 | 1009.5 |
| 20260505080430 | 48 | 165 | 0.0 | 0.0 | 0.00 | 0.02 | 0.02 | 85 | 1009.8 |
| 20260505075926 | 48 | 167 | 0.0 | 0.9 | 0.00 | 0.02 | 0.02 | 85 | 1009.2 |
| 20260505075423 | 49 | 167 | 0.0 | 0.0 | 0.00 | 0.02 | 0.02 | 85 | 1009.4 |
| 20260505074921 | 48 | 165 | 0.0 | 1.7 | 0.00 | 0.02 | 0.02 | 85 | 1009.5 |
| 20260505074418 | 48 | 170 | 0.9 | 2.6 | 0.00 | 0.02 | 0.02 | 86 | 1009.6 |
| 20260505073914 | 48 | 163 | 0.0 | 0.0 | 0.00 | 0.02 | 0.02 | 87 | 1009.7 |
| 20260505073413 | 48 | 176 | 0.9 | 0.9 | 0.00 | 0.02 | 0.02 | 87 | 1009.7 |
| 20260505072909 | 48 | 166 | 0.0 | 0.9 | 0.00 | 0.02 | 0.02 | 88 | 1009.7 |
| 20260505072405 | 48 | 172 | 0.9 | 0.9 | 0.00 | 0.02 | 0.02 | 87 | 1009.8 |
| 20260505071902 | 48 | 165 | 0.0 | 0.0 | 0.00 | 0.02 | 0.02 | 87 | 1009.4 |
| 20260505071358 | 47 | 165 | 0.0 | 0.0 | 0.00 | 0.02 | 0.02 | 86 | 1009.6 |
| 20260505070856 | 48 | 167 | 0.0 | 0.0 | 0.00 | 0.02 | 0.02 | 86 | 1009.5 |
| 20260505070352 | 48 | 172 | 0.9 | 2.6 | 0.00 | 0.02 | 0.02 | 85 | 1009.6 |
| 20260505065848 | 48 | 178 | 1.7 | 2.6 | 0.00 | 0.02 | 0.02 | 84 | 1009.5 |
| 20260505065345 | 48 | 175 | 0.0 | 0.9 | 0.00 | 0.02 | 0.02 | 83 | 1008.9 |
| 20260505064842 | 48 | 165 | 0.0 | 0.9 | 0.00 | 0.02 | 0.02 | 85 | 1009.1 |
| 20260505064339 | 48 | 162 | 0.0 | 0.0 | 0.00 | 0.02 | 0.02 | 84 | 1009.3 |
| 20260505063837 | 48 | 177 | 0.9 | 1.7 | 0.00 | 0.02 | 0.02 | 83 | 1009.7 |
| 20260505063333 | 48 | 177 | 0.0 | 0.9 | 0.00 | 0.02 | 0.02 | 79 | 1009.3 |
| 20260505062830 | 48 | 160 | 0.0 | 0.9 | 0.07 | 0.02 | 0.02 | 77 | 1009.3 |
| 20260505062327 | 49 | 153 | 0.9 | 0.9 | 0.07 | 0.02 | 0.02 | 75 | 1009.5 |
| 20260505061823 | 49 | 172 | 0.0 | 0.9 | 0.00 | 0.01 | 0.01 | 74 | 1010.2 |
| 20260505061322 | 49 | 208 | 1.7 | 2.6 | 0.00 | 0.01 | 0.01 | 74 | 1010.2 |
| 20260505060819 | 49 | 141 | 1.7 | 1.7 | 0.00 | 0.01 | 0.01 | 74 | 1010.0 |
| 20260505060316 | 49 | 182 | 0.0 | 2.6 | 0.00 | 0.01 | 0.01 | 74 | 1009.4 |
| 20260505055811 | 49 | 137 | 2.6 | 3.5 | 0.00 | 0.01 | 0.01 | 74 | 1009.4 |
| 20260505055307 | 49 | 167 | 0.0 | 2.6 | 0.00 | 0.01 | 0.01 | 74 | 1009.6 |
| 20260505054805 | 49 | 270 | 4.3 | 5.2 | 0.00 | 0.01 | 0.01 | 74 | 1009.8 |
| 20260505054302 | 50 | 132 | 2.6 | 3.5 | 0.00 | 0.01 | 0.01 | 73 | 1009.5 |
| 20260505053801 | 50 | 198 | 2.6 | 3.5 | 0.00 | 0.01 | 0.01 | 72 | 1010.0 |
| 20260505053257 | 50 | 161 | 3.5 | 5.2 | 0.00 | 0.01 | 0.01 | 71 | 1009.6 |
| 20260505052754 | 50 | 288 | 2.6 | 6.1 | 0.00 | 0.01 | 0.01 | 70 | 1009.4 |
| 20260505052251 | 50 | 73 | 3.5 | 3.5 | 0.00 | 0.01 | 0.01 | 71 | 1009.4 |
| 20260505051748 | 50 | 131 | 2.6 | 6.1 | 0.00 | 0.01 | 0.01 | 70 | 1009.4 |
| 20260505051246 | 50 | 0 | 4.3 | 6.1 | 0.00 | 0.01 | 0.01 | 70 | 1009.4 |
| 20260505050743 | 50 | 114 | 3.5 | 6.1 | 0.05 | 0.01 | 0.01 | 71 | 1009.4 |
| 20260505050242 | 50 | 34 | 3.5 | 7.0 | 0.05 | 0.01 | 0.01 | 69 | 1010.0 |
| 20260505041712 | 54 | 145 | 4.3 | 7.0 | 0.00 | 0.00 | 0.00 | 50 | 1010.2 |
| 20260505041209 | 55 | 4 | 3.5 | 7.8 | 0.00 | 0.00 | 0.00 | 50 | 1009.7 |
| 20260505040706 | 55 | 2 | 6.1 | 11.3 | 0.00 | 0.00 | 0.00 | 47 | 1010.0 |
| 20260505040203 | 55 | 6 | 7.0 | 11.3 | 0.00 | 0.00 | 0.00 | 46 | 1009.9 |
| 20260505035700 | 55 | 146 | 2.6 | 8.7 | 0.00 | 0.00 | 0.00 | 46 | 1009.4 |
| 20260505035156 | 55 | 106 | 6.1 | 9.6 | 0.00 | 0.00 | 0.00 | 46 | 1009.4 |
| 20260505034652 | 55 | 115 | 5.2 | 7.8 | 0.00 | 0.00 | 0.00 | 45 | 1009.1 |
| 20260505034150 | 55 | 30 | 5.2 | 9.6 | 0.00 | 0.00 | 0.00 | 46 | 1009.1 |
| 20260505033646 | 56 | 9 | 7.0 | 13.0 | 0.00 | 0.00 | 0.00 | 46 | 1009.0 |
| 20260505033144 | 56 | 18 | 4.3 | 12.2 | 0.00 | 0.00 | 0.00 | 46 | 1009.1 |
| 20260505032642 | 56 | 2 | 11.3 | 13.0 | 0.00 | 0.00 | 0.00 | 46 | 1008.9 |
| 20260505032138 | 56 | 50 | 10.4 | 12.2 | 0.00 | 0.00 | 0.00 | 46 | 1008.9 |
| 20260505031636 | 56 | 34 | 5.2 | 9.6 | 0.00 | 0.00 | 0.00 | 46 | 1009.0 |
| 20260505031131 | 56 | 358 | 9.6 | 11.3 | 0.00 | 0.00 | 0.00 | 46 | 1009.2 |
| 20260505030629 | 56 | 32 | 10.4 | 13.0 | 0.00 | 0.00 | 0.00 | 44 | 1008.9 |
| 20260505030124 | 57 | 20 | 8.7 | 11.3 | 0.00 | 0.00 | 0.00 | 44 | 1008.7 |
| 20260505025620 | 56 | 282 | 6.1 | 9.6 | 0.00 | 0.00 | 0.00 | 45 | 1008.7 |
| 20260505025120 | 57 | 337 | 7.8 | 12.2 | 0.00 | 0.00 | 0.00 | 44 | 1008.5 |
| 20260505024616 | 57 | 71 | 6.1 | 11.3 | 0.00 | 0.00 | 0.00 | 45 | 1008.6 |
| 20260505024114 | 57 | 355 | 9.6 | 19.1 | 0.00 | 0.00 | 0.00 | 45 | 1008.3 |
| 20260505023611 | 57 | 355 | 8.7 | 18.2 | 0.00 | 0.00 | 0.00 | 45 | 1008.2 |
| 20260505023109 | 57 | 330 | 7.8 | 13.9 | 0.00 | 0.00 | 0.00 | 45 | 1008.1 |
| 20260505022606 | 57 | 358 | 9.6 | 15.6 | 0.00 | 0.00 | 0.00 | 44 | 1008.2 |
| 20260505022102 | 57 | 317 | 7.0 | 11.3 | 0.00 | 0.00 | 0.00 | 44 | 1008.0 |
| 20260505021559 | 58 | 342 | 7.8 | 19.1 | 0.00 | 0.00 | 0.00 | 44 | 1007.8 |
| 20260505021056 | 58 | 60 | 7.8 | 14.8 | 0.00 | 0.00 | 0.00 | 44 | 1007.6 |
| 20260505020556 | 58 | 329 | 7.0 | 13.9 | 0.00 | 0.00 | 0.00 | 45 | 1008.0 |
| 20260505020053 | 58 | 24 | 8.7 | 13.9 | 0.00 | 0.00 | 0.00 | 45 | 1007.6 |
| 20260505015550 | 58 | 348 | 9.6 | 16.5 | 0.00 | 0.00 | 0.00 | 45 | 1007.7 |
| 20260505015047 | 58 | 338 | 12.2 | 16.5 | 0.00 | 0.00 | 0.00 | 44 | 1007.7 |
| 20260505014543 | 58 | 0 | 6.1 | 14.8 | 0.00 | 0.00 | 0.00 | 45 | 1007.3 |
| 20260505014041 | 59 | 20 | 9.6 | 18.2 | 0.00 | 0.00 | 0.00 | 45 | 1007.4 |
| 20260505013538 | 59 | 13 | 10.4 | 15.6 | 0.00 | 0.00 | 0.00 | 44 | 1007.3 |
| 20260505013035 | 59 | 16 | 13.0 | 20.0 | 0.00 | 0.00 | 0.00 | 43 | 1007.3 |
| 20260505012533 | 60 | 339 | 13.9 | 21.7 | 0.00 | 0.00 | 0.00 | 42 | 1007.0 |
| 20260505012030 | 61 | 334 | 8.7 | 13.0 | 0.00 | 0.00 | 0.00 | 41 | 1006.7 |
| 20260505011525 | 61 | 344 | 10.4 | 15.6 | 0.00 | 0.00 | 0.00 | 41 | 1006.6 |
| 20260505011023 | 61 | 336 | 10.4 | 14.8 | 0.00 | 0.00 | 0.00 | 41 | 1006.8 |
| 20260505010518 | 62 | 18 | 10.4 | 16.5 | 0.00 | 0.00 | 0.00 | 40 | 1006.5 |
| 20260505010015 | 62 | 15 | 9.6 | 20.0 | 0.00 | 0.00 | 0.00 | 39 | 1006.6 |
| 20260505005511 | 63 | 28 | 13.0 | 16.5 | 0.00 | 0.00 | 0.00 | 38 | 1006.5 |
| 20260505005009 | 64 | 359 | 13.9 | 21.7 | 0.00 | 0.00 | 0.00 | 38 | 1006.3 |
| 20260505004506 | 64 | 17 | 9.6 | 13.9 | 0.00 | 0.00 | 0.00 | 37 | 1006.3 |
| 20260505004002 | 65 | 358 | 12.2 | 16.5 | 0.00 | 0.00 | 0.00 | 37 | 1006.1 |
| 20260505003500 | 65 | 22 | 10.4 | 14.8 | 0.00 | 0.00 | 0.00 | 37 | 1006.1 |
| 20260505002956 | 65 | 20 | 7.8 | 15.6 | 0.00 | 0.00 | 0.00 | 36 | 1005.9 |
| 20260505002452 | 66 | 337 | 8.7 | 15.6 | 0.00 | 0.00 | 0.00 | 36 | 1005.7 |
| 20260505001950 | 66 | 276 | 12.2 | 15.6 | 0.00 | 0.00 | 0.00 | 35 | 1005.8 |
| 20260505001448 | 68 | 340 | 13.9 | 20.9 | 0.00 | 0.00 | 0.00 | 35 | 1005.7 |
| 20260505000945 | 68 | 8 | 7.0 | 8.7 | 0.00 | 0.00 | 0.00 | 36 | 1005.6 |
| 20260505000443 | 68 | 23 | 7.8 | 11.3 | 0.00 | 0.00 | 0.00 | 36 | 1005.5 |
| 20260504235939 | 69 | 319 | 7.8 | 12.2 | 0.00 | 0.00 | 0.00 | 36 | 1005.5 |
| 20260504235436 | 69 | 351 | 7.8 | 14.8 | 0.00 | 0.00 | 0.00 | 35 | 1005.4 |
| 20260504234932 | 69 | 10 | 10.4 | 15.6 | 0.00 | 0.00 | 0.00 | 35 | 1005.4 |
| 20260504234430 | 69 | 6 | 11.3 | 18.2 | 0.00 | 0.00 | 0.00 | 35 | 1005.3 |
| 20260504233926 | 69 | 312 | 9.6 | 13.0 | 0.00 | 0.00 | 0.00 | 35 | 1005.4 |
| 20260504233422 | 70 | 317 | 8.7 | 14.8 | 0.00 | 0.00 | 0.00 | 34 | 1005.3 |
| 20260504232919 | 70 | 350 | 6.1 | 11.3 | 0.00 | 0.00 | 0.00 | 34 | 1005.1 |
| 20260504232417 | 71 | 7 | 10.4 | 15.6 | 0.00 | 0.00 | 0.00 | 33 | 1004.9 |
| 20260504231914 | 71 | 273 | 8.7 | 14.8 | 0.00 | 0.00 | 0.00 | 33 | 1005.0 |
| 20260504231409 | 72 | 12 | 7.0 | 13.0 | 0.00 | 0.00 | 0.00 | 33 | 1004.7 |
| 20260504230906 | 72 | 0 | 9.6 | 13.9 | 0.00 | 0.00 | 0.00 | 32 | 1004.9 |
| 20260504230403 | 72 | 344 | 7.8 | 13.0 | 0.00 | 0.00 | 0.00 | 32 | 1004.8 |
| 20260504225902 | 73 | 334 | 9.6 | 13.9 | 0.00 | 0.00 | 0.00 | 32 | 1004.4 |
| 20260504225358 | 72 | 71 | 5.2 | 13.9 | 0.00 | 0.00 | 0.00 | 32 | 1004.3 |
| 20260504224856 | 73 | 346 | 7.8 | 12.2 | 0.00 | 0.00 | 0.00 | 32 | 1004.1 |
| 20260504224352 | 73 | 73 | 8.7 | 13.9 | 0.00 | 0.00 | 0.00 | 32 | 1004.0 |
| 20260504223849 | 73 | 31 | 9.6 | 14.8 | 0.00 | 0.00 | 0.00 | 32 | 1004.0 |
| 20260504223344 | 74 | 4 | 11.3 | 16.5 | 0.00 | 0.00 | 0.00 | 32 | 1003.8 |
| 20260504222841 | 75 | 18 | 11.3 | 14.8 | 0.00 | 0.00 | 0.00 | 32 | 1003.8 |
| 20260504222338 | 75 | 8 | 9.6 | 13.9 | 0.00 | 0.00 | 0.00 | 32 | 1003.6 |
| 20260504221837 | 75 | 46 | 8.7 | 13.9 | 0.00 | 0.00 | 0.00 | 31 | 1003.5 |
| 20260504221333 | 75 | 12 | 9.6 | 20.0 | 0.00 | 0.00 | 0.00 | 32 | 1003.6 |
| 20260504220830 | 76 | 324 | 8.7 | 13.9 | 0.00 | 0.00 | 0.00 | 32 | 1003.4 |
| 20260504220327 | 76 | 359 | 6.1 | 13.9 | 0.00 | 0.00 | 0.00 | 32 | 1003.0 |
| 20260504215824 | 76 | 1 | 7.8 | 12.2 | 0.00 | 0.00 | 0.00 | 32 | 1003.2 |
| 20260504215320 | 76 | 26 | 11.3 | 15.6 | 0.00 | 0.00 | 0.00 | 31 | 1003.2 |
| 20260504214816 | 76 | 50 | 6.1 | 13.9 | 0.00 | 0.00 | 0.00 | 32 | 1002.9 |
| 20260504214314 | 77 | 254 | 7.8 | 13.0 | 0.00 | 0.00 | 0.00 | 32 | 1003.1 |
| 20260504213810 | 77 | 37 | 5.2 | 13.0 | 0.00 | 0.00 | 0.00 | 32 | 1002.9 |
| 20260504213306 | 77 | 86 | 7.0 | 9.6 | 0.00 | 0.00 | 0.00 | 32 | 1003.1 |
| 20260504212804 | 77 | 26 | 7.0 | 11.3 | 0.00 | 0.00 | 0.00 | 32 | 1002.9 |
| 20260504212300 | 77 | 3 | 6.1 | 13.9 | 0.00 | 0.00 | 0.00 | 33 | 1003.0 |
| 20260504211758 | 77 | 356 | 7.0 | 12.2 | 0.00 | 0.00 | 0.00 | 33 | 1003.0 |
| 20260504211253 | 77 | 353 | 7.8 | 9.6 | 0.00 | 0.00 | 0.00 | 33 | 1003.0 |
| 20260504210751 | 77 | 56 | 6.1 | 12.2 | 0.00 | 0.00 | 0.00 | 34 | 1003.0 |
| 20260504210248 | 77 | 356 | 4.3 | 16.5 | 0.00 | 0.00 | 0.00 | 35 | 1002.7 |
| 20260504205745 | 78 | 77 | 8.7 | 12.2 | 0.00 | 0.00 | 0.00 | 34 | 1002.7 |
| 20260504205243 | 77 | 1 | 7.0 | 13.0 | 0.00 | 0.00 | 0.00 | 35 | 1002.7 |
| 20260504204741 | 78 | 319 | 6.1 | 8.7 | 0.00 | 0.00 | 0.00 | 35 | 1002.7 |
| 20260504204239 | 78 | 89 | 5.2 | 11.3 | 0.00 | 0.00 | 0.00 | 35 | 1002.7 |
| 20260504203738 | 77 | 266 | 5.2 | 9.6 | 0.00 | 0.00 | 0.00 | 36 | 1002.7 |
| 20260504203235 | 78 | 10 | 4.3 | 12.2 | 0.00 | 0.00 | 0.00 | 36 | 1002.6 |
| 20260504202735 | 79 | 48 | 6.1 | 8.7 | 0.00 | 0.00 | 0.00 | 36 | 1002.6 |
| 20260504202232 | 78 | 90 | 6.1 | 9.6 | 0.00 | 0.00 | 0.00 | 38 | 1002.5 |
| 20260504201729 | 79 | 61 | 7.8 | 13.9 | 0.00 | 0.00 | 0.00 | 36 | 1002.7 |
| 20260504201226 | 79 | 345 | 6.1 | 12.2 | 0.00 | 0.00 | 0.00 | 36 | 1002.6 |
| 20260504200724 | 79 | 3 | 11.3 | 14.8 | 0.00 | 0.00 | 0.00 | 36 | 1002.6 |
| 20260504200220 | 79 | 15 | 7.0 | 11.3 | 0.00 | 0.00 | 0.00 | 36 | 1002.6 |
| 20260504195716 | 79 | 326 | 6.1 | 14.8 | 0.00 | 0.00 | 0.00 | 35 | 1002.5 |
| 20260504195212 | 79 | 36 | 5.2 | 13.0 | 0.00 | 0.00 | 0.00 | 36 | 1002.4 |
| 20260504194710 | 79 | 120 | 5.2 | 9.6 | 0.00 | 0.00 | 0.00 | 36 | 1002.6 |
| 20260504194206 | 80 | 1 | 7.0 | 12.2 | 0.00 | 0.00 | 0.00 | 37 | 1002.6 |
| 20260504193702 | 80 | 345 | 5.2 | 11.3 | 0.00 | 0.00 | 0.00 | 35 | 1002.3 |
| 20260504193200 | 80 | 45 | 4.3 | 11.3 | 0.00 | 0.00 | 0.00 | 35 | 1002.3 |
| 20260504192658 | 80 | 91 | 2.6 | 13.0 | 0.00 | 0.00 | 0.00 | 35 | 1002.2 |
| 20260504192156 | 80 | 99 | 4.3 | 8.7 | 0.00 | 0.00 | 0.00 | 34 | 1002.3 |
| 20260504191654 | 80 | 198 | 6.1 | 14.8 | 0.00 | 0.00 | 0.00 | 34 | 1002.1 |
| 20260504191150 | 80 | 324 | 2.6 | 9.6 | 0.00 | 0.00 | 0.00 | 35 | 1002.2 |
| 20260504190646 | 80 | 73 | 4.3 | 8.7 | 0.00 | 0.00 | 0.00 | 34 | 1002.1 |
| 20260504190143 | 81 | 252 | 4.3 | 11.3 | 0.00 | 0.00 | 0.00 | 33 | 1002.3 |
| 20260504185639 | 81 | 275 | 2.6 | 7.0 | 0.00 | 0.00 | 0.00 | 33 | 1002.0 |
| 20260504185136 | 82 | 15 | 4.3 | 12.2 | 0.00 | 0.00 | 0.00 | 32 | 1001.8 |
| 20260504184632 | 81 | 198 | 0.9 | 7.8 | 0.00 | 0.00 | 0.00 | 32 | 1001.9 |
| 20260504184127 | 81 | 64 | 6.1 | 11.3 | 0.00 | 0.00 | 0.00 | 33 | 1001.9 |
| 20260504183624 | 81 | 10 | 3.5 | 7.0 | 0.00 | 0.00 | 0.00 | 32 | 1001.6 |
| 20260504183122 | 81 | 8 | 5.2 | 12.2 | 0.00 | 0.00 | 0.00 | 32 | 1002.0 |
| 20260504182619 | 80 | 321 | 6.1 | 7.8 | 0.00 | 0.00 | 0.00 | 33 | 1001.9 |
| 20260504182117 | 80 | 359 | 3.5 | 13.9 | 0.00 | 0.00 | 0.00 | 32 | 1002.0 |
| 20260504181614 | 79 | 13 | 3.5 | 11.3 | 0.00 | 0.00 | 0.00 | 33 | 1001.8 |
| 20260504181111 | 81 | 305 | 4.3 | 12.2 | 0.00 | 0.00 | 0.00 | 33 | 1002.0 |
| 20260504180610 | 82 | 318 | 2.6 | 6.1 | 0.00 | 0.00 | 0.00 | 32 | 1001.9 |
| 20260504180109 | 82 | 59 | 6.1 | 7.8 | 0.00 | 0.00 | 0.00 | 31 | 1001.9 |
| 20260504175606 | 81 | 291 | 3.5 | 7.8 | 0.00 | 0.00 | 0.00 | 32 | 1002.0 |
| 20260504175102 | 81 | 345 | 6.1 | 11.3 | 0.00 | 0.00 | 0.00 | 32 | 1002.0 |
| 20260504174600 | 81 | 72 | 0.9 | 3.5 | 0.00 | 0.00 | 0.00 | 32 | 1002.1 |
| 20260504174057 | 81 | 239 | 5.2 | 8.7 | 0.00 | 0.00 | 0.00 | 32 | 1002.2 |
| 20260504173553 | 80 | 166 | 0.9 | 6.1 | 0.00 | 0.00 | 0.00 | 34 | 1002.1 |